View from above orbital plane
|
View from above satellite
|
Ground track
|
The orbit data is extracted from the following two-line orbital elements,
1 26070U 00006B 21063.22928962 -.00000051 00000-0 -15451-5 0 9992
2 26070 71.0055 347.3627 0014163 88.7862 271.4884 14.15472849 89355
Epoch (UTC): | 04 March 2021 05:30:10 |
Eccentricity: | 0.0014163 |
inclination: | 71.0055° |
perigee height: | 830 km |
apogee height: | 851 km |
right ascension of ascending node: | 347.3627° |
argument of perigee: | 88.7862° |
revolutions per day: | 14.15472849 |
mean anomaly at epoch: | 271.4884° |
orbit number at epoch: | 8935 |
The dashed part of the orbit path shows where the satellite is in the earth's shadow,
|
|